Regional Weather Roundup
Issued by NWS Charleston, SC

Current Version | Previous Version | Graphics & Text | Print | Product List | Glossary On
Versions: 1 2 3 4 5 6 7 8 9 10 11 12 13 14 15 16 17 18 19 20 21 22 23 24 25 26 27 28 29 30 31 32 33 34 35 36 37 38 39 40 41 42 43 44 45 46 47 48 49 50
000
ASUS42 KCHS 191338
RWRCHS

REGIONAL WEATHER ROUNDUP
NATIONAL WEATHER SERVICE CHARLESTON SC
900 AM EDT TUE SEP 19 2017

NOTE: "FAIR" INDICATES FEW OR NO CLOUDS BELOW 12,000 FEET WITH NO
SIGNIFICANT WEATHER AND/OR OBSTRUCTIONS TO VISIBILITY.

NOT ALL STATIONS ARE QUALITY CONTROLLED. USE DATA WITH CAUTION...
ESPECIALLY DEWPOINT OBSERVATIONS.

SCZ027-030-031-034>040-042>050-191400-
...SOUTHEAST SOUTH CAROLINA...

CITY           SKY/WX    TMP DP  RH WIND       PRES   REMARKS
N CHARLESTON   SUNNY     75  70  84 CALM      30.00R
WATERFRONT PRK   N/A     75  71  87 VRB3      29.83R
JOHNS ISLAND   FAIR      79  72  78 NW3       30.01R
PINOPOLIS        N/A     73  70  88 VRB3      29.92R
MONCKS CORNER  FAIR      73  68  83 CALM      30.01R
SUMMERVILLE    FAIR      72  68  88 CALM      30.02R
BEAUFORT MCAS  SUNNY     76  71  85 NW6       30.01R
BEAUFORT ARPT  FAIR      77  68  73 NW6       30.01R
HILTON HEAD IS SUNNY     77  72  83 CALM      30.01R
WALTERBORO     SUNNY     73  68  83 CALM      30.03R
ALLENDALE      NOT AVBL

...SOUTHERN MIDLANDS AND PEE DEE...

CITY           SKY/WX    TMP DP  RH WIND       PRES   REMARKS
GEORGETOWN     FAIR      70  70 100 N3        30.01R
KINGSTREE      FAIR      72  68  88 CALM      30.02R
ORANGEBURG     CLOUDY    72  66  81 CALM      30.02R
BARNWELL       FAIR      75  68  78 CALM      30.03R
AIKEN          CLOUDY    72  68  88 CALM      30.07R
MANNING        FAIR      72  59  64 N5        30.02R
COLUMBIA       PTSUNNY   74  66  76 SE3       30.02R
SUMTER         SUNNY     72  65  79 NE5       30.00R
FLORENCE       SUNNY     71  67  87 N7        30.01R
MYRTLE BEACH   SUNNY     73  67  81 N6        30.00R
N MYRTLE BEACH SUNNY     73  68  84 N7        29.97R

$$

GAZ063-065-086>088-099>101-113>116-118-119-134>141-150-191400-
...SOUTHEAST GEORGIA...

CITY           SKY/WX    TMP DP  RH WIND       PRES   REMARKS
SAVANNAH ARPT  MOSUNNY   77  69  76 W5        30.01R
HUNTER AAF     SUNNY     75  70  85 W5        29.99R
FORT STEWART   CLOUDY    76  67  73 W3        29.99R
STATESBORO     SUNNY     74  68  81 CALM      30.02R
SYLVANIA       CLOUDY    74  72  93 CALM      30.03R
CLAXTON        FAIR      74  71  88 CALM      30.02R

...CSRA...CENTRAL AND FAR SOUTHEAST GEORGIA...

CITY           SKY/WX    TMP DP  RH WIND       PRES   REMARKS
THOMSON        SUNNY     71  68  90 CALM      30.07S
AUGUSTA-BUSH   PTSUNNY   71  69  93 CALM      30.01R FOG
AUGUSTA-DANIEL PTSUNNY   75  67  76 CALM      30.02S
SWAINSBORO     FAIR      73  70  88 W3        30.03R
VIDALIA        PTSUNNY   73  70  88 CALM      30.02R
EASTMAN        PTSUNNY   72  72 100 CALM      30.04R
HAZLEHURST     FAIR      77  62  58 CALM      30.00S
ALMA           SUNNY     76  68  76 CALM      30.01R
WAYCROSS       SUNNY     75  67  75 CALM      30.02R
JESUP          NOT AVBL
BAXLEY         FAIR      73  68  83 CALM      30.01R
BRUNSWICK      PTSUNNY   73  68  83 W5        30.02R
SAINT SIMONS   SUNNY     78  72  81 W5        30.00R

$$

SCZ027-028-034-036>038-045-046-048>050-GAZ119-141-191400-
...LAKE AND SUPPLEMENTAL COASTAL OBSERVATIONS...

STATION/POSITION TIME  TEMP    WIND        PRES    WAVE   SWELL
                       AIR SEA DIR/SP/G            HT/PER HT/PER/DIR
                 (UTC) (F)     (DEG/KT/KT) (MB)    (FT/S) (FT/S/D)
WINYAH BAY       1245   71     340/  5     1015.0S
LAKE MURRAY      1320   73      CALM  /  1 1016.3
ACE BASIN NERRS  1245   72        CALM     1016.0S
FORT PULASKI     1300   76 79  320/  6/  7 1016.5
SAPELO ISLAND    1300   77        CALM     1016.0

$$

ANZ835-935-AMZ111-154-330-350-352-354-370-450-454-472-191400-
...C-MAN AND BUOY OBSERVATIONS...

STATION/POSITION TIME  TEMP    WIND        PRES    WAVE   SWELL
                       AIR SEA DIR/SP/G            HT/PER HT/PER/DIR
                 (UTC) (F)     (DEG/KT/KT) (MB)    (FT/S) (FT/S/D)
BUOY 41004       1310   77 82  350/  8/ 10 1015.1
BUOY 41008       1250   78 80  270/  8/ 10 1015.4R   4/12   3/ 60/12
FOLLY BEACH CMAN 1300   76     350/  3/  4 1016.3R
CAPERS NEARSHORE 1308   74 79   20/  8/ 10 1015.4R
FRIPP NEARSHORE  1308   78     340/ 10/ 12 1024.1R


STATION/POSITION TIME  TEMP    WIND        PRES    WAVE   SWELL
                       AIR SEA DIR/SP/G            HT/PER HT/PER/DIR
                 (UTC) (F)     (DEG/KT/KT) (MB)    (FT/S) (FT/S/D)
5E ST. MARYS GA  1300      80                N/A     3/13   2/ 80/13
FRYING PAN BUOY  1310   74 81  340/ 12/ 16 1014.1
BUOY 41025       1250   72 76  340/ 25/ 31 1008.5R  11/11   8/ 80/11
CAPE LOOKOUT NC  1300   71     310/ 17/ 20 1012.0R
BUOY 41002       1250   80 80  290/ 16/ 17 1012.2R  10/11   8/ 40/11
BUOY 41010       1310      84  360/  6/ 10 1014.7
ST AUGUSTINE FL  1300   81 81   50/  5/  6 1016.1R


$$




USA.gov is the U.S. government's official web portal to all federal, state and local government web resources and services.